EA1AHA-13 Weather Reports


Display with metric or nautical units.
time (UTC)temp
F
wind
direction
speed
MPH
gust
MPH
rain 1hr
in
rain 24hr
in
rain mn
in
humidity
%
barometer
mb
20260507080116 57 135 5.0 8.0 0.00 0.03 0.00 80 1009.7
20260507075140 57 157 4.0 8.0 0.00 0.03 0.00 79 1009.7
20260507074117 58 45 1.0 3.0 0.00 0.03 0.00 81 1009.7
20260507073140 57 0.0 0.0 0.00 0.03 0.00 82 1010.0
20260507072117 56 0.0 1.0 0.00 0.03 0.00 84 1010.1
20260507071141 55 0.0 0.0 0.00 0.03 0.00 86 1010.2
20260507070116 53 0.0 0.0 0.00 0.03 0.00 89 1010.0
20260507065140 53 0.0 1.0 0.00 0.03 0.00 88 1010.0
20260507064117 53 0.0 0.0 0.00 0.03 0.00 89 1010.1
20260507063140 53 0.0 0.0 0.00 0.03 0.00 90 1010.1
20260507062116 51 157 1.0 2.0 0.00 0.03 0.00 92 1010.2
20260507061140 51 0.0 0.0 0.00 0.03 0.00 94 1010.0
20260507060116 50 157 0.0 1.0 0.00 0.03 0.00 95 1010.1
20260507055141 50 0.0 0.0 0.00 0.03 0.00 95 1010.1
20260507054117 49 0 0.0 1.0 0.00 0.03 0.00 96 1010.1
20260507053141 50 0.0 1.0 0.00 0.03 0.00 96 1010.2
20260507052116 49 0.0 1.0 0.00 0.03 0.00 95 1009.9
20260507051141 50 157 1.0 2.0 0.00 0.03 0.00 95 1009.9
20260507050117 50 0.0 0.0 0.00 0.03 0.00 95 1010.2
20260507045140 50 135 1.0 2.0 0.00 0.03 0.00 95 1010.1
20260507044116 50 0.0 0.0 0.00 0.03 0.00 95 1009.9
20260507043140 50 0.0 0.0 0.00 0.03 0.00 95 1010.1
20260507042117 51 0.0 0.0 0.00 0.03 0.00 95 1010.2
20260507041140 50 0.0 0.0 0.00 0.03 0.00 94 1010.2
20260507040117 50 0.0 0.0 0.00 0.03 0.00 94 1010.4
20260507035141 50 0.0 0.0 0.00 0.03 0.00 94 1010.2
20260507034117 51 270 0.0 1.0 0.00 0.03 0.00 94 1010.3
20260507033140 51 0.0 0.0 0.00 0.03 0.00 94 1010.3
20260507032117 51 0.0 0.0 0.00 0.03 0.00 94 1010.5
20260507031140 52 0.0 0.0 0.00 0.03 0.00 93 1010.7
20260507030117 52 0.0 0.0 0.00 0.03 0.00 93 1010.7
20260507025140 52 0.0 1.0 0.00 0.03 0.00 93 1010.7
20260507024117 52 135 0.0 1.0 0.00 0.03 0.00 93 1010.5
20260507023140 52 0.0 0.0 0.00 0.03 0.00 93 1010.9
20260507022116 52 0.0 0.0 0.00 0.03 0.00 93 1010.9
20260507021140 52 0.0 0.0 0.00 0.03 0.00 93 1010.9
20260507020117 52 0.0 0.0 0.00 0.03 0.00 93 1010.9
20260507015140 52 0.0 0.0 0.00 0.03 0.00 92 1010.9
20260507014117 52 135 0.0 1.0 0.00 0.03 0.00 92 1011.0
20260507013140 53 0.0 0.0 0.00 0.03 0.00 92 1010.8
20260507012116 53 0.0 0.0 0.00 0.03 0.00 92 1011.2
20260507011140 53 0.0 0.0 0.00 0.03 0.00 92 1011.1
20260507010117 53 0.0 1.0 0.00 0.03 0.00 92 1011.4
20260507005140 53 0.0 1.0 0.00 0.03 0.00 92 1011.4
20260507004116 53 0.0 1.0 0.00 0.03 0.00 92 1011.4
20260507003141 53 135 3.0 4.0 0.00 0.03 0.00 92 1011.5
20260507002117 53 135 0.0 1.0 0.00 0.03 0.00 93 1011.6
20260507001141 54 0.0 1.0 0.00 0.03 0.00 92 1011.6
20260507000117 54 0.0 0.0 0.00 0.04 0.00 91 1011.7
20260506235140 54 0.0 0.0 0.00 0.04 0.00 89 1011.8
20260506234116 54 0.0 0.0 0.00 0.04 0.00 88 1011.8
20260506233140 53 0.0 0.0 0.00 0.04 0.00 87 1012.0
20260506232117 53 247 0.0 1.0 0.00 0.04 0.00 90 1012.0
20260506231140 54 0.0 0.0 0.00 0.04 0.00 90 1011.8
20260506230118 54 0.0 0.0 0.00 0.04 0.00 90 1012.0
20260506225141 54 0.0 0.0 0.00 0.04 0.00 89 1012.0
20260506224117 54 0.0 0.0 0.00 0.04 0.00 89 1012.2
20260506223140 54 180 0.0 2.0 0.00 0.04 0.00 89 1012.2
20260506222117 54 202 0.0 1.0 0.00 0.04 0.00 88 1012.4
20260506221140 54 0.0 1.0 0.00 0.05 0.00 89 1012.4
20260506220116 54 225 3.0 4.0 0.00 0.05 0.05 89 1012.6
20260506215141 54 225 3.0 6.0 0.00 0.05 0.05 90 1012.5
20260506214116 55 270 1.0 2.0 0.00 0.05 0.05 91 1012.3
20260506213140 55 225 1.0 2.0 0.00 0.05 0.05 91 1012.4
20260506212116 55 0.0 0.0 0.00 0.05 0.05 91 1012.6
20260506211140 55 0.0 0.0 0.01 0.05 0.05 91 1012.5
20260506210116 55 247 1.0 2.0 0.01 0.05 0.05 91 1012.6
20260506205140 55 225 3.0 3.0 0.01 0.05 0.05 91 1012.8
20260506204117 56 225 2.0 3.0 0.02 0.05 0.05 89 1012.8
20260506203141 56 0.0 0.0 0.02 0.05 0.05 89 1012.6
20260506202116 56 67 0.0 1.0 0.02 0.05 0.05 89 1012.6
20260506201141 56 0.0 0.0 0.01 0.04 0.04 88 1012.5
20260506200117 56 0.0 0.0 0.01 0.04 0.04 88 1012.5
20260506195140 56 0.0 0.0 0.02 0.04 0.04 87 1012.4
20260506194116 56 0.0 1.0 0.01 0.03 0.03 87 1012.4
20260506193141 57 112 0.0 2.0 0.01 0.03 0.03 87 1012.3
20260506192117 57 90 0.0 2.0 0.01 0.03 0.03 87 1012.5
20260506191141 57 90 0.0 2.0 0.01 0.03 0.03 87 1012.3
20260506190116 56 90 0.0 2.0 0.01 0.03 0.03 87 1012.5
20260506185140 57 112 3.0 6.0 0.00 0.02 0.02 86 1012.3
20260506184117 58 67 3.0 4.0 0.00 0.02 0.02 84 1012.1
20260506183141 57 0 4.0 6.0 0.00 0.02 0.02 82 1012.2
20260506182116 58 45 3.0 8.0 0.00 0.02 0.02 81 1012.2
20260506181141 58 22 5.0 8.0 0.00 0.02 0.02 81 1012.5
20260506180117 58 337 3.0 4.0 0.00 0.02 0.02 81 1012.3
20260506175141 58 22 5.0 8.0 0.00 0.02 0.02 80 1012.2
20260506174117 59 0 3.0 6.0 0.00 0.02 0.02 80 1012.3
20260506173141 59 0 4.0 6.0 0.00 0.02 0.02 80 1012.4
20260506172118 59 0 1.0 4.0 0.00 0.02 0.02 79 1012.4
20260506171140 59 22 2.0 6.0 0.00 0.02 0.02 79 1012.3
20260506170117 58 337 4.0 6.0 0.00 0.02 0.02 79 1012.5
20260506165141 59 0 4.0 8.0 0.00 0.02 0.02 76 1012.3
20260506164117 59 67 3.0 6.0 0.00 0.02 0.02 75 1012.4
20260506163140 60 270 6.0 9.0 0.00 0.02 0.02 76 1012.1
20260506162117 59 247 3.0 8.0 0.00 0.02 0.02 77 1012.4
20260506161140 59 315 6.0 10.0 0.00 0.02 0.02 75 1012.4
20260506160117 60 337 8.0 10.0 0.00 0.02 0.02 74 1012.0
20260506155141 59 337 8.0 12.0 0.00 0.02 0.02 74 1012.3
20260506154117 60 45 3.0 4.0 0.00 0.02 0.02 71 1012.3
20260506153140 60 22 6.0 8.0 0.00 0.02 0.02 73 1012.5
20260506152117 62 22 2.0 3.0 0.00 0.02 0.02 68 1012.6
20260506151141 60 112 3.0 6.0 0.00 0.02 0.02 68 1012.5
20260506150117 60 337 3.0 9.0 0.00 0.02 0.02 70 1012.8
20260506145140 60 22 6.0 8.0 0.00 0.02 0.02 72 1012.8
20260506144117 60 157 3.0 9.0 0.00 0.02 0.02 68 1012.8
20260506143140 60 337 5.0 10.0 0.00 0.02 0.02 69 1013.0
20260506142116 59 225 4.0 8.0 0.00 0.02 0.02 75 1012.9
20260506141141 59 337 8.0 11.0 0.00 0.02 0.02 75 1013.0
20260506140116 59 337 3.0 8.0 0.00 0.02 0.02 74 1013.1
20260506135141 58 0 12.0 15.0 0.00 0.02 0.02 73 1013.0
20260506134117 58 337 5.0 9.0 0.00 0.02 0.02 75 1013.2
20260506133140 59 315 11.0 15.0 0.00 0.02 0.02 74 1013.3
20260506132117 60 0 5.0 15.0 0.00 0.02 0.02 71 1013.3
20260506131140 60 0 12.0 15.0 0.00 0.02 0.02 72 1013.4
20260506130117 60 337 14.0 17.0 0.00 0.02 0.02 70 1013.2
20260506125140 61 22 10.0 13.0 0.00 0.02 0.02 68 1013.2
20260506124117 61 67 3.0 6.0 0.00 0.02 0.02 65 1013.3
20260506123140 62 337 3.0 10.0 0.00 0.02 0.02 66 1013.4
20260506122116 60 315 5.0 10.0 0.00 0.02 0.02 69 1013.4
20260506121141 62 270 6.0 15.0 0.00 0.02 0.02 68 1013.6
20260506120118 60 22 9.0 12.0 0.00 0.02 0.02 71 1013.2
20260506115140 61 0 3.0 10.0 0.00 0.02 0.02 67 1013.6
20260506114116 60 180 5.0 10.0 0.00 0.02 0.02 68 1013.6
20260506113140 60 0 3.0 6.0 0.00 0.02 0.02 70 1013.7
20260506112117 60 337 3.0 4.0 0.00 0.02 0.02 72 1013.3
20260506111140 60 202 4.0 9.0 0.00 0.02 0.02 73 1013.7
20260506110116 60 0 6.0 12.0 0.00 0.02 0.02 68 1013.6
20260506104812 58 0 8.0 15.0 0.00 0.02 0.02 75 1013.5
20260506103628 59 22 7.0 11.0 0.00 0.02 0.02 73 1013.6
20260506102605 59 315 7.0 11.0 0.00 0.02 0.02 70 1013.8
20260506101629 59 112 3.0 6.0 0.00 0.02 0.02 72 1013.7
20260506100606 60 67 0.0 2.0 0.00 0.02 0.02 71 1013.4
20260506095628 58 270 6.0 8.0 0.00 0.02 0.02 71 1013.6
20260506094605 59 112 4.0 8.0 0.00 0.02 0.02 71 1013.8
20260506093628 58 292 6.0 8.0 0.00 0.02 0.02 73 1013.7
20260506092605 58 270 3.0 6.0 0.00 0.02 0.02 74 1013.6
20260506091629 57 292 4.0 6.0 0.00 0.02 0.02 75 1013.6
20260506090605 57 315 2.0 3.0 0.00 0.02 0.02 76 1013.3
20260506085628 57 270 3.0 4.0 0.00 0.02 0.02 77 1013.3
20260506084605 56 247 5.0 8.0 0.00 0.02 0.02 76 1013.6
20260506083628 56 270 2.0 4.0 0.00 0.02 0.02 79 1013.5
20260506082605 55 270 3.0 4.0 0.00 0.02 0.02 79 1013.8
20260506081629 55 247 3.0 4.0 0.00 0.02 0.02 80 1013.6
20260506080605 55 247 3.0 4.0 0.00 0.02 0.02 79 1013.5